STARLINK-11695, 63551

Orbit data source: Space-Track

STARLINK-11695, 63551 is a payload satellite owned by SpaceX/Seattle (US) in LEO that was launched on Sun, 13 Apr 2025 UTC via an FALCON 9 launch vehicle from the Air Force Eastern Test Range (AFETR). Payload-class satellites include a variety of spacecraft equipped with specific instruments for various scientific and technological missions. These include communications satellites like Starlink; space stations such as the ISS; scientific satellites like the Hubble; Earth observation satellites from companies like Planet Labs, Umbra, and HawkEye 360; GPS; miniature CubeSats for education and research; and military/defense satellites.

Loading next visibility...
Identifier
63551, 2025-075D
Orbit
LEO
Country
Flag of USUS
Related business
Manufacturer
SpaceX/Seattle
Mission
Operational Commercial Communications
Bus & Motor
STARLINK V2MD, Unknown motor
Mass
960 kg wet, ~910 kg dry
Launch date (UTC)
2025-04-13 (1 year ago)
Launch vehicle
FALCON 9
Launch site
Air Force Eastern Test Range (AFETR)
Object type
Payload
Rocket body
Debris
Shape & HBR
Box + 2 Pan, 18.1 m
Radar Cross Section
36.964 m², Large (>1 m²)

Expand to show TLE details & history
Last TLE update: 1 day ago

TLE from 1 day ago
0 STARLINK-11695
1 63551U 25075D   26170.55203455  .00161699  00000-0  12376-2 0  9997
2 63551  42.9976 259.3835 0002218 293.1829  66.8804 15.70870638 69272
Epoch: 2026-06-19T13:14Z
TLE epoch observation values (Epoch: 2026-06-19T13:14:55.785Z)
Latitude
-0.00006°
Longitude
152.87162°
Altitude
355.592 km
Speed
7.698 km/s
True Right ascension
17h 17m 32s
True Declination
0° 00' 00"
Sunlit
Object was in full shadow at epoch
Visualization orbit readout
Latitude
Unknown
Longitude
Unknown
Altitude
Unknown
Speed
Unknown
Apparent Right ascension
Unknown
Apparent Declination
Unknown
Sunlit
N/A
Visualization observer readout
Local Sidereal Time
07:20:12
Azimuth
Unknown
Elevation
Unknown
Doppler factor
Unknown
Orbital elements
Apogee altitude
359.884 km
Perigee altitude
356.895 km
Semi-major axis
6,736.527 km
Eccentricity
0.00022
Inclination
42.9976°
RAAN
259.3835°
Arg. of periapsis
293.1829°
True anomaly
66.90378°
Mean anomaly
66.8804°
Eccentric anomaly
66.89209°
Mean motion
3.92545 °/min
Orbital period
91.71 mins
BSTAR
0.0012376
Loading maneuver chart data...
Computing Atmospheric mass density...
Loading historical data...
Loading historical data...
Loading historical data...
Loading historical data...
Loading historical data...
Loading historical data...
Loading historical data...

Documentation

Showing up to 5 results
|